User: anonymous   Login
Location: Caltech
(34.1382°N, 118.1253°W)
Time: 04:38:00
(UTC-07:00)
Language:

Cosmos 2333 Rocket - Orbit

View from above orbital plane
View from above orbital plane
View from above satellite
View from above satellite

Ground track
Ground track

The orbit data is extracted from the following two-line orbital elements,

1 24298U 96051B   15111.08504341 -.00000147  00000-0 -53317-4 0  9997
2 24298 070.8467 283.4245 0018346 272.5842 227.3430 14.12425816960548
Epoch (UTC): 21 April 2015 02:02:27
Eccentricity: 0.0018346
inclination: 70.8467°
perigee height: 838 km
apogee height: 864 km
right ascension of ascending node: 283.4245°
argument of perigee: 272.5842°
revolutions per day: 14.12425816
mean anomaly at epoch: 227.3430°
orbit number at epoch: 96054

The dashed part of the orbit path shows where the satellite is in the earth's shadow,  

DLR